This is the latest recevied weather packets stored in our database for station/object W5ADC. If no packets are shown the sender has not sent any weather packets the latest 10 day(s).
| Time | Temp. | Humidity | Pressure | Rain* | Wind** | Luminosity | Snow |
|---|---|---|---|---|---|---|---|
| 1777413601 | 26.11° C | 87% | 1005.6 hPa | 0 mm | - | 9 W/m² | - |
| 1777413297 | 26.11° C | 86% | 1006.4 hPa | 0 mm | - | 11 W/m² | - |
| 1777412993 | 26.11° C | 87% | 1006.5 hPa | 0 mm | - | 13 W/m² | - |
| 1777412691 | 26.11° C | 86% | 1006.9 hPa | 0 mm | - | 14 W/m² | - |
| 1777412389 | 26.67° C | 86% | 1006.7 hPa | 0 mm | - | 14 W/m² | - |
| 1777412084 | 26.67° C | 86% | 1006.6 hPa | 0 mm | - | 10 W/m² | - |
| 1777411779 | 26.67° C | 86% | 1006.4 hPa | 0 mm | - | 12 W/m² | - |
| 1777411473 | 26.67° C | 86% | 1006.4 hPa | 0 mm | - | 8 W/m² | - |
| 1777411173 | 26.67° C | 86% | 1005.9 hPa | 0 mm | - | 16 W/m² | - |
| 1777410868 | 26.67° C | 86% | 1006.3 hPa | 0 mm | - | 22 W/m² | - |
| 1777410567 | 26.67° C | 86% | 1006 hPa | 0 mm | - | 24 W/m² | - |
| 1777410267 | 26.67° C | 86% | 1005.7 hPa | 0 mm | - | 23 W/m² | - |
| 1777409962 | 26.67° C | 85% | 1006.2 hPa | 0 mm | - | 25 W/m² | - |
| 1777409657 | 26.67° C | 85% | 1006.2 hPa | 0 mm | - | 41 W/m² | - |
| 1777409354 | 26.67° C | 85% | 1006.2 hPa | 0 mm | - | 47 W/m² | - |
| 1777409049 | 26.67° C | 85% | 1006.5 hPa | 0 mm | - | 48 W/m² | - |
| 1777408746 | 26.67° C | 85% | 1005.7 hPa | 0 mm | - | 47 W/m² | - |
| 1777408442 | 26.67° C | 84% | 1005.7 hPa | 0 mm | - | 71 W/m² | - |
| 1777408136 | 26.67° C | 84% | 1005.6 hPa | 0 mm | - | 82 W/m² | - |
| 1777407831 | 26.67° C | 84% | 1005.6 hPa | 0 mm | - | 80 W/m² | - |
| 1777407529 | 26.67° C | 84% | 1005.2 hPa | 0 mm | - | 69 W/m² | - |
| 1777407223 | 27.22° C | 83% | 1005.1 hPa | 0 mm | - | 82 W/m² | - |
| 1777406918 | 27.22° C | 83% | 1005 hPa | 0 mm | - | 96 W/m² | - |
| 1777406613 | 27.22° C | 82% | 1005.5 hPa | 0 mm | - | 95 W/m² | - |
| 1777406309 | 27.22° C | 82% | 1005.5 hPa | 0 mm | - | 137 W/m² | - |
* Rain latest hour (hover to see other rain measurements)
** Current wind speed in m/s (hover to see current wind gust speed)